Dades meteomassalio
Diari Summary for Gener 6, 2017 Units:  English    Metric   Both
« Previous Day
Next Day »
Diari Semanal Mensual Anual Personalitzat
  Maxima: Minima: Mijana:
Temperatura: 50.2 °F 27.1 °F 36 °F
Rosada: 29.1 °F 23.5 °F 26.1 °F
Humitat: 88 % 36 % 70 %
Velocitat del vent: 0 mph 0 mph 0 mph
Racha vent: 0 mph - -
Vent:- - North
Pressio: 30.5 in 30.4 in -
Pluja: 0 in    
Historical Graphs
 
 
Tabular Data for Gener 6, 2017
Time Temperature Dew Point Pressure Wind Wind Speed Wind Gust Humidity Rainfall Rate (Hourly) solar Conditions
00:04 36.7 °F 28.4 °F 30.4 in Calm     72 % 0 in 0.0 W/m2 CLR
00:09 36.3 °F 28 °F 30.4 in Calm     72 % 0 in 0.0 W/m2 CLR
00:14 36 °F 28.2 °F 30.4 in Calm     73 % 0 in 0.0 W/m2 CLR
00:19 35.8 °F 28.2 °F 30.4 in Calm     74 % 0 in 0.0 W/m2 CLR
00:24 35.8 °F 28.2 °F 30.4 in Calm     74 % 0 in 0.0 W/m2 CLR
00:30 35.8 °F 28 °F 30.4 in Calm     73 % 0 in 0.0 W/m2 CLR
00:35 35.4 °F 27.9 °F 30.4 in Calm     74 % 0 in 0.0 W/m2 CLR
00:40 35.1 °F 27.9 °F 30.4 in Calm     75 % 0 in 0.0 W/m2 CLR
00:45 34.7 °F 27.9 °F 30.4 in Calm     76 % 0 in 0.0 W/m2 CLR
00:50 34.5 °F 27.7 °F 30.4 in Calm     76 % 0 in 0.0 W/m2 CLR
00:55 34.5 °F 28 °F 30.4 in Calm     77 % 0 in 0.0 W/m2 CLR
01:00 34.5 °F 28 °F 30.4 in Calm     77 % 0 in 0.0 W/m2 CLR
01:05 34.3 °F 27.9 °F 30.4 in Calm     77 % 0 in 0.0 W/m2 CLR
01:10 34.2 °F 27.7 °F 30.4 in Calm     77 % 0 in 0.0 W/m2 CLR
01:15 34 °F 27.5 °F 30.4 in Calm     77 % 0 in 0.0 W/m2 CLR
01:20 33.6 °F 27.3 °F 30.4 in Calm     77 % 0 in 0.0 W/m2 CLR
01:25 33.4 °F 27.3 °F 30.4 in Calm     78 % 0 in 0.0 W/m2 CLR
01:30 33.4 °F 27.3 °F 30.4 in Calm     78 % 0 in 0.0 W/m2 CLR
01:35 32.7 °F 26.6 °F 30.4 in Calm     78 % 0 in 0.0 W/m2 CLR
01:40 32.4 °F 26.8 °F 30.4 in Calm     80 % 0 in 0.0 W/m2 CLR
01:45 31.8 °F 26.8 °F 30.4 in Calm     81 % 0 in 0.0 W/m2 CLR
01:50 31.5 °F 26.2 °F 30.4 in Calm     81 % 0 in 0.0 W/m2 CLR
01:55 31.3 °F 26.8 °F 30.4 in Calm     83 % 0 in 0.0 W/m2 CLR
02:00 31.3 °F 26.8 °F 30.4 in Calm     83 % 0 in 0.0 W/m2 CLR
02:05 31.1 °F 26.4 °F 30.4 in Calm     83 % 0 in 0.0 W/m2 CLR
02:10 30.9 °F 26.2 °F 30.4 in Calm     83 % 0 in 0.0 W/m2 CLR
02:15 30.7 °F 26.1 °F 30.4 in Calm     83 % 0 in 0.0 W/m2 CLR
02:20 30.6 °F 26.2 °F 30.4 in Calm     84 % 0 in 0.0 W/m2 CLR
02:25 30.6 °F 26.2 °F 30.4 in Calm     84 % 0 in 0.0 W/m2 CLR
02:30 30.6 °F 26.2 °F 30.4 in Calm     84 % 0 in 0.0 W/m2 CLR
02:35 30.6 °F 26.2 °F 30.4 in Calm     84 % 0 in 0.0 W/m2 CLR
02:40 30.7 °F 26.4 °F 30.4 in Calm     84 % 0 in 0.0 W/m2 CLR
02:45 30.7 °F 26.4 °F 30.4 in Calm     84 % 0 in 0.0 W/m2 CLR
02:50 30.7 °F 26.4 °F 30.4 in Calm     84 % 0 in 0.0 W/m2 CLR
02:55 30.6 °F 26.2 °F 30.4 in Calm     84 % 0 in 0.0 W/m2 CLR
03:00 30.2 °F 25.9 °F 30.4 in Calm     84 % 0 in 0.0 W/m2 CLR
03:05 30 °F 25.9 °F 30.4 in Calm     84 % 0 in 0.0 W/m2 CLR
03:10 30 °F 26.1 °F 30.4 in Calm     85 % 0 in 0.0 W/m2 CLR
03:15 29.8 °F 25.9 °F 30.4 in Calm     85 % 0 in 0.0 W/m2 CLR
03:20 30 °F 26.1 °F 30.4 in Calm     85 % 0 in 0.0 W/m2 CLR
03:25 29.8 °F 25.9 °F 30.4 in Calm     85 % 0 in 0.0 W/m2 CLR
03:30 29.7 °F 25.7 °F 30.4 in Calm     85 % 0 in 0.0 W/m2 CLR
03:35 29.8 °F 26.2 °F 30.4 in Calm     86 % 0 in 0.0 W/m2 CLR
03:40 29.8 °F 25.9 °F 30.4 in Calm     85 % 0 in 0.0 W/m2 CLR
03:45 29.8 °F 25.9 °F 30.4 in Calm     85 % 0 in 0.0 W/m2 CLR
03:50 29.7 °F 25.5 °F 30.4 in Calm     85 % 0 in 0.0 W/m2 CLR
03:55 29.3 °F 25.3 °F 30.4 in Calm     85 % 0 in 0.0 W/m2 CLR
04:00 29.1 °F 25.3 °F 30.4 in Calm     86 % 0 in 0.0 W/m2 CLR
04:05 28.9 °F 25.2 °F 30.4 in Calm     86 % 0 in 0.0 W/m2 CLR
04:10 28.8 °F 25 °F 30.4 in Calm     86 % 0 in 0.0 W/m2 CLR
04:15 28.6 °F 25.2 °F 30.4 in Calm     87 % 0 in 0.0 W/m2 CLR
04:20 28.6 °F 25.2 °F 30.4 in Calm     87 % 0 in 0.0 W/m2 CLR
04:25 28.6 °F 25.2 °F 30.4 in Calm     87 % 0 in 0.0 W/m2 CLR
04:30 28.4 °F 25.3 °F 30.4 in Calm     88 % 0 in 0.0 W/m2 CLR
04:35 28.4 °F 25.3 °F 30.4 in Calm     88 % 0 in 0.0 W/m2 CLR
04:40 28.4 °F 25.3 °F 30.4 in Calm     88 % 0 in 0.0 W/m2 CLR
04:45 28.2 °F 25.2 °F 30.4 in Calm     88 % 0 in 0.0 W/m2 CLR
04:50 28.2 °F 25.2 °F 30.4 in Calm     88 % 0 in 0.0 W/m2 CLR
04:55 28 °F 25 °F 30.4 in Calm     88 % 0 in 0.0 W/m2 CLR
05:00 28 °F 25 °F 30.4 in Calm     88 % 0 in 0.0 W/m2 CLR
05:05 28.2 °F 25.2 °F 30.4 in Calm     88 % 0 in 0.0 W/m2 CLR
05:10 28.2 °F 25.2 °F 30.4 in Calm     88 % 0 in 0.0 W/m2 CLR
05:15 28.2 °F 25.2 °F 30.4 in Calm     88 % 0 in 0.0 W/m2 CLR
05:20 28.6 °F 25.3 °F 30.4 in Calm     88 % 0 in 0.0 W/m2 CLR
05:25 28.4 °F 25.3 °F 30.4 in Calm     88 % 0 in 0.0 W/m2 CLR
05:30 28.2 °F 25.2 °F 30.4 in Calm     88 % 0 in 0.0 W/m2 CLR
05:35 28.2 °F 25.2 °F 30.4 in Calm     88 % 0 in 0.0 W/m2 CLR
05:40 28.2 °F 25.2 °F 30.4 in Calm     88 % 0 in 0.0 W/m2 CLR
05:45 28.2 °F 25.2 °F 30.4 in Calm     88 % 0 in 0.0 W/m2 CLR
05:50 28.2 °F 25.2 °F 30.4 in Calm     88 % 0 in 0.0 W/m2 CLR
05:55 28.2 °F 25.2 °F 30.4 in Calm     88 % 0 in 0.0 W/m2 CLR
06:00 28.2 °F 25.2 °F 30.4 in Calm     88 % 0 in 0.0 W/m2 CLR
06:05 28.2 °F 25.2 °F 30.4 in Calm     88 % 0 in 0.0 W/m2 CLR
06:10 28.2 °F 25.2 °F 30.4 in Calm     88 % 0 in 0.0 W/m2 CLR
06:15 28.6 °F 25.3 °F 30.4 in Calm     88 % 0 in 0.0 W/m2 CLR
06:20 28.6 °F 25.5 °F 30.4 in Calm     88 % 0 in 0.0 W/m2 CLR
06:25 28.9 °F 25.9 °F 30.4 in Calm     88 % 0 in 0.0 W/m2 CLR
06:30 28.9 °F 25.9 °F 30.4 in Calm     88 % 0 in 0.0 W/m2 CLR
06:35 29.1 °F 25.7 °F 30.4 in Calm     87 % 0 in 0.0 W/m2 CLR
06:40 29.3 °F 25.5 °F 30.4 in Calm     86 % 0 in 0.0 W/m2 CLR
06:45 29.1 °F 25.5 °F 30.4 in Calm     86 % 0 in 0.0 W/m2 CLR
06:50 28.9 °F 25.2 °F 30.4 in Calm     85 % 0 in 0.0 W/m2 CLR
06:55 28.8 °F 25 °F 30.4 in Calm     86 % 0 in 0.0 W/m2 CLR
07:00 28.6 °F 25 °F 30.4 in Calm     86 % 0 in 0.0 W/m2 CLR
07:05 28.6 °F 25.2 °F 30.4 in Calm     87 % 0 in 0.0 W/m2 CLR
07:10 28.6 °F 25.2 °F 30.5 in Calm     87 % 0 in 0.0 W/m2 CLR
07:16 28.6 °F 25.2 °F 30.5 in Calm     87 % 0 in 0.0 W/m2 CLR
07:21 28.6 °F 25.2 °F 30.5 in Calm     87 % 0 in 0.0 W/m2 CLR
07:26 28.8 °F 25.3 °F 30.5 in Calm     87 % 0 in 0.0 W/m2 CLR
07:31 28.6 °F 25 °F 30.5 in Calm     86 % 0 in 0.0 W/m2 CLR
07:36 28.2 °F 24.6 °F 30.5 in Calm     86 % 0 in 0.0 W/m2 CLR
07:41 28 °F 24.6 °F 30.5 in Calm     87 % 0 in 0.0 W/m2 CLR
07:46 28.2 °F 24.8 °F 30.5 in Calm     87 % 0 in 0.0 W/m2 CLR
07:51 28 °F 24.6 °F 30.5 in Calm     87 % 0 in 0.0 W/m2 CLR
07:56 27.9 °F 24.4 °F 30.5 in Calm     87 % 0 in 0.0 W/m2 CLR
08:01 27.5 °F 24.1 °F 30.5 in Calm     87 % 0 in 0.0 W/m2 CLR
08:06 27.1 °F 23.7 °F 30.5 in Calm     87 % 0 in 0.0 W/m2 CLR
08:11 27.5 °F 24.4 °F 30.5 in Calm     88 % 0 in 0.0 W/m2 CLR
08:16 27.7 °F 24.6 °F 30.5 in Calm     88 % 0 in 0.0 W/m2 CLR
08:21 27.7 °F 24.6 °F 30.5 in Calm     88 % 0 in 0.0 W/m2 CLR
08:26 27.7 °F 24.3 °F 30.5 in Calm     87 % 0 in 5.0 W/m2 BKN
08:31 27.9 °F 24.6 °F 30.5 in Calm     88 % 0 in 7.0 W/m2 BKN
08:36 27.9 °F 24.4 °F 30.5 in Calm     87 % 0 in 9.0 W/m2 BKN
08:41 28 °F 24.6 °F 30.5 in Calm     87 % 0 in 12.0 W/m2 BKN
08:46 28.6 °F 25.2 °F 30.5 in Calm     87 % 0 in 14.0 W/m2 BKN
08:51 28.8 °F 25.2 °F 30.5 in Calm     86 % 0 in 16.0 W/m2 BKN
08:56 28.9 °F 25.3 °F 30.5 in Calm     86 % 0 in 21.0 W/m2 BKN
09:01 29.5 °F 25.7 °F 30.5 in Calm     86 % 0 in 33.0 W/m2 BKN
09:06 29.8 °F 25.9 °F 30.5 in Calm     85 % 0 in 40.0 W/m2 BKN
09:11 29.8 °F 25.7 °F 30.5 in Calm     84 % 0 in 62.0 W/m2 BKN
09:16 30.6 °F 26.4 °F 30.5 in Calm     85 % 0 in 79.0 W/m2 BKN
09:21 30.7 °F 26.2 °F 30.5 in Calm     83 % 0 in 56.0 W/m2 BKN
09:26 31.6 °F 27 °F 30.5 in Calm     83 % 0 in 69.0 W/m2 BKN
09:31 32 °F 27.1 °F 30.5 in Calm     82 % 0 in 91.0 W/m2 BKN
09:36 32.5 °F 27.7 °F 30.5 in Calm     82 % 0 in 95.0 W/m2 BKN
09:41 33.1 °F 27.9 °F 30.5 in Calm     81 % 0 in 134.0 W/m2 BKN
09:46 33.3 °F 27.9 °F 30.5 in Calm     80 % 0 in 144.0 W/m2 BKN
09:51 33.6 °F 27.9 °F 30.5 in Calm     79 % 0 in 121.0 W/m2 SCT
09:56 34 °F 28 °F 30.5 in Calm     79 % 0 in 172.0 W/m2 SCT
10:01 34.7 °F 28.6 °F 30.5 in Calm     78 % 0 in 186.0 W/m2 SCT
10:06 35.4 °F 28.8 °F 30.5 in Calm     76 % 0 in 130.0 W/m2 SCT
10:11 36 °F 28.6 °F 30.5 in Calm     74 % 0 in 209.0 W/m2 SCT
10:17 36.5 °F 28.8 °F 30.5 in Calm     73 % 0 in 109.0 W/m2 SCT
10:22 36.7 °F 28.4 °F 30.5 in Calm     72 % 0 in 237.0 W/m2 SCT
10:27 37.2 °F 28.8 °F 30.5 in Calm     71 % 0 in 250.0 W/m2 SCT
10:32 37.6 °F 28.9 °F 30.5 in Calm     71 % 0 in 260.0 W/m2 SCT
10:37 37.8 °F 28.6 °F 30.5 in Calm     69 % 0 in 271.0 W/m2 SCT
10:42 38.3 °F 28.8 °F 30.5 in Calm     68 % 0 in 279.0 W/m2 SCT
10:47 38.8 °F 28.6 °F 30.5 in Calm     66 % 0 in 292.0 W/m2 SCT
10:52 39.6 °F 28.8 °F 30.5 in Calm     65 % 0 in 302.0 W/m2 FEW
10:57 40.3 °F 28.9 °F 30.5 in Calm     64 % 0 in 311.0 W/m2 FEW
11:02 40.6 °F 28.9 °F 30.5 in Calm     63 % 0 in 320.0 W/m2 FEW
11:07 41.2 °F 27.9 °F 30.5 in Calm     59 % 0 in 330.0 W/m2 FEW
11:12 41.5 °F 27.9 °F 30.5 in Calm     58 % 0 in 339.0 W/m2 FEW
11:17 41.9 °F 28.2 °F 30.5 in Calm     58 % 0 in 348.0 W/m2 FEW
11:22 43 °F 29.1 °F 30.5 in Calm     58 % 0 in 355.0 W/m2 FEW
11:27 43.9 °F 28.2 °F 30.5 in Calm     54 % 0 in 364.0 W/m2 FEW
11:32 44.8 °F 28.6 °F 30.5 in Calm     53 % 0 in 371.0 W/m2 FEW
11:37 45 °F 27.3 °F 30.5 in Calm     50 % 0 in 378.0 W/m2 FEW
11:42 45.1 °F 28 °F 30.5 in Calm     51 % 0 in 385.0 W/m2 FEW
11:47 45 °F 26.4 °F 30.5 in Calm     48 % 0 in 390.0 W/m2 FEW
11:52 45.1 °F 26.6 °F 30.5 in Calm     48 % 0 in 399.0 W/m2 FEW
11:57 45.1 °F 26.6 °F 30.5 in Calm     48 % 0 in 404.0 W/m2 CLR
12:02 45.3 °F 25.9 °F 30.5 in Calm     46 % 0 in 410.0 W/m2 CLR
12:07 45.7 °F 26.4 °F 30.5 in Calm     47 % 0 in 415.0 W/m2 CLR
12:12 45.7 °F 25.5 °F 30.5 in Calm     45 % 0 in 420.0 W/m2 CLR
12:17 45.9 °F 26.2 °F 30.5 in Calm     46 % 0 in 424.0 W/m2 CLR
12:22 46 °F 26.4 °F 30.5 in Calm     46 % 0 in 427.0 W/m2 CLR
12:27 46.2 °F 26.1 °F 30.5 in Calm     45 % 0 in 431.0 W/m2 CLR
12:32 46 °F 25.9 °F 30.5 in Calm     45 % 0 in 434.0 W/m2 CLR
12:37 46.2 °F 25.5 °F 30.5 in Calm     44 % 0 in 436.0 W/m2 CLR
12:42 46.4 °F 26.8 °F 30.5 in Calm     46 % 0 in 439.0 W/m2 CLR
12:47 46.8 °F 25.9 °F 30.4 in Calm     44 % 0 in 441.0 W/m2 CLR
12:52 46.9 °F 25.5 °F 30.4 in Calm     43 % 0 in 443.0 W/m2 CLR
12:57 47.1 °F 25.3 °F 30.4 in Calm     42 % 0 in 443.0 W/m2 CLR
13:02 47.7 °F 26.8 °F 30.4 in Calm     44 % 0 in 446.0 W/m2 CLR
13:07 48 °F 26.6 °F 30.4 in Calm     43 % 0 in 446.0 W/m2 CLR
13:12 47.8 °F 26.4 °F 30.4 in Calm     43 % 0 in 446.0 W/m2 CLR
13:18 48 °F 25.3 °F 30.4 in Calm     41 % 0 in 445.0 W/m2 CLR
13:23 48 °F 26.4 °F 30.4 in Calm     43 % 0 in 445.0 W/m2 CLR
13:28 47.8 °F 26.4 °F 30.4 in Calm     43 % 0 in 443.0 W/m2 CLR
13:33 47.7 °F 26.2 °F 30.4 in Calm     43 % 0 in 441.0 W/m2 CLR
13:38 47.7 °F 25.5 °F 30.4 in Calm     42 % 0 in 439.0 W/m2 CLR
13:43 47.8 °F 26.4 °F 30.4 in Calm     43 % 0 in 438.0 W/m2 CLR
13:48 47.8 °F 25.9 °F 30.4 in Calm     42 % 0 in 434.0 W/m2 CLR
13:53 48 °F 25.5 °F 30.4 in Calm     41 % 0 in 432.0 W/m2 CLR
13:58 48.4 °F 26.2 °F 30.4 in Calm     42 % 0 in 429.0 W/m2 CLR
14:03 48.4 °F 25.7 °F 30.4 in Calm     41 % 0 in 424.0 W/m2 CLR
14:08 48.6 °F 27.7 °F 30.4 in Calm     44 % 0 in 420.0 W/m2 CLR
14:13 48.6 °F 26.4 °F 30.4 in Calm     42 % 0 in 415.0 W/m2 CLR
14:18 48.7 °F 25.5 °F 30.4 in Calm     40 % 0 in 411.0 W/m2 CLR
14:23 48.7 °F 25 °F 30.4 in Calm     39 % 0 in 406.0 W/m2 CLR
14:28 48.7 °F 24.8 °F 30.4 in Calm     39 % 0 in 399.0 W/m2 CLR
14:33 48.7 °F 26.1 °F 30.4 in Calm     41 % 0 in 394.0 W/m2 CLR
14:38 48.9 °F 25.7 °F 30.4 in Calm     40 % 0 in 387.0 W/m2 CLR
14:43 49.5 °F 23.5 °F 30.4 in Calm     36 % 0 in 380.0 W/m2 CLR
14:48 49.6 °F 25 °F 30.4 in Calm     38 % 0 in 373.0 W/m2 CLR
14:53 49.6 °F 25.2 °F 30.4 in Calm     38 % 0 in 366.0 W/m2 CLR
14:58 49.6 °F 24.4 °F 30.4 in Calm     37 % 0 in 359.0 W/m2 CLR
15:03 49.6 °F 25 °F 30.4 in Calm     38 % 0 in 350.0 W/m2 CLR
15:08 49.6 °F 26.2 °F 30.4 in Calm     40 % 0 in 339.0 W/m2 CLR
15:13 49.6 °F 25.2 °F 30.4 in Calm     38 % 0 in 332.0 W/m2 CLR
15:18 49.6 °F 26.2 °F 30.4 in Calm     40 % 0 in 323.0 W/m2 CLR
15:23 49.8 °F 25.9 °F 30.4 in Calm     39 % 0 in 313.0 W/m2 CLR
15:28 49.8 °F 25.9 °F 30.4 in Calm     39 % 0 in 302.0 W/m2 CLR
15:33 50.2 °F 25 °F 30.4 in Calm     37 % 0 in 294.0 W/m2 CLR
15:38 50 °F 25.3 °F 30.4 in Calm     38 % 0 in 281.0 W/m2 CLR
15:43 50 °F 26.1 °F 30.4 in Calm     39 % 0 in 269.0 W/m2 CLR
15:48 49.8 °F 25.9 °F 30.4 in Calm     39 % 0 in 257.0 W/m2 CLR
15:53 50 °F 26.1 °F 30.4 in Calm     39 % 0 in 243.0 W/m2 CLR
15:58 49.8 °F 27 °F 30.4 in Calm     41 % 0 in 229.0 W/m2 CLR
16:03 50 °F 27.9 °F 30.4 in Calm     42 % 0 in 216.0 W/m2 CLR
16:08 49.6 °F 26.2 °F 30.4 in Calm     40 % 0 in 202.0 W/m2 CLR
16:13 49.6 °F 27.3 °F 30.4 in Calm     42 % 0 in 185.0 W/m2 CLR
16:18 49.8 °F 25.9 °F 30.4 in Calm     39 % 0 in 171.0 W/m2 CLR
16:23 49.8 °F 26.4 °F 30.4 in Calm     40 % 0 in 156.0 W/m2 CLR
16:28 49.6 °F 27 °F 30.4 in Calm     41 % 0 in 142.0 W/m2 CLR
16:33 49.6 °F 27 °F 30.4 in Calm     41 % 0 in 130.0 W/m2 CLR
16:38 49.6 °F 27.3 °F 30.4 in Calm     42 % 0 in 113.0 W/m2 CLR
16:43 49.6 °F 27 °F 30.4 in Calm     41 % 0 in 100.0 W/m2 CLR
16:48 49.6 °F 28 °F 30.4 in Calm     43 % 0 in 88.0 W/m2 CLR
16:53 49.6 °F 28 °F 30.4 in Calm     43 % 0 in 76.0 W/m2 CLR
16:58 49.5 °F 27.3 °F 30.4 in Calm     42 % 0 in 54.0 W/m2 CLR
17:03 49.3 °F 27.7 °F 30.4 in Calm     43 % 0 in 51.0 W/m2 OVC
17:08 48.9 °F 27.5 °F 30.4 in Calm     43 % 0 in 40.0 W/m2 OVC
17:13 48.6 °F 28.8 °F 30.4 in Calm     46 % 0 in 28.0 W/m2 OVC
17:18 48 °F 27.1 °F 30.4 in Calm     44 % 0 in 19.0 W/m2 OVC
17:23 47.7 °F 27.3 °F 30.4 in Calm     45 % 0 in 14.0 W/m2 OVC
17:28 46.8 °F 26.6 °F 30.4 in Calm     45 % 0 in 12.0 W/m2 OVC
17:33 46.2 °F 25.5 °F 30.4 in Calm     44 % 0 in 11.0 W/m2 OVC
17:38 45.5 °F 24.8 °F 30.4 in Calm     44 % 0 in 7.0 W/m2 OVC
17:43 44.8 °F 24.6 °F 30.4 in Calm     45 % 0 in 5.0 W/m2 OVC
17:48 44.1 °F 24.4 °F 30.4 in Calm     46 % 0 in 5.0 W/m2 CLR
17:53 43.5 °F 24.3 °F 30.4 in Calm     46 % 0 in 0.0 W/m2 CLR
17:58 43.2 °F 24.8 °F 30.4 in Calm     48 % 0 in 0.0 W/m2 CLR
18:03 42.4 °F 24.3 °F 30.4 in Calm     48 % 0 in 0.0 W/m2 CLR
18:08 42.1 °F 25.2 °F 30.4 in Calm     51 % 0 in 0.0 W/m2 CLR
18:13 41.4 °F 26.4 °F 30.4 in Calm     55 % 0 in 0.0 W/m2 CLR
18:18 40.5 °F 26.4 °F 30.4 in Calm     57 % 0 in 0.0 W/m2 CLR
18:23 39.6 °F 26.2 °F 30.4 in Calm     59 % 0 in 0.0 W/m2 CLR
18:28 38.8 °F 26.4 °F 30.4 in Calm     61 % 0 in 0.0 W/m2 CLR
18:34 38.1 °F 26.8 °F 30.4 in Calm     63 % 0 in 0.0 W/m2 CLR
18:39 37.6 °F 26.4 °F 30.4 in Calm     64 % 0 in 0.0 W/m2 CLR
18:44 37 °F 26.8 °F 30.4 in Calm     66 % 0 in 0.0 W/m2 CLR
18:49 36.5 °F 26.6 °F 30.4 in Calm     67 % 0 in 0.0 W/m2 CLR
18:54 36.1 °F 26.6 °F 30.4 in Calm     68 % 0 in 0.0 W/m2 CLR
18:59 35.8 °F 26.4 °F 30.4 in Calm     69 % 0 in 0.0 W/m2 CLR
19:04 35.4 °F 26.8 °F 30.4 in Calm     70 % 0 in 0.0 W/m2 CLR
19:09 35.2 °F 26.8 °F 30.5 in Calm     71 % 0 in 0.0 W/m2 CLR
19:14 35.1 °F 26.6 °F 30.5 in Calm     71 % 0 in 0.0 W/m2 CLR
19:19 34.9 °F 26.8 °F 30.5 in Calm     72 % 0 in 0.0 W/m2 CLR
19:24 34.5 °F 26.4 °F 30.5 in Calm     72 % 0 in 0.0 W/m2 CLR
19:29 34.2 °F 26.4 °F 30.5 in Calm     73 % 0 in 0.0 W/m2 CLR
19:34 34 °F 26.2 °F 30.5 in Calm     73 % 0 in 0.0 W/m2 CLR
19:39 33.6 °F 26.2 °F 30.5 in Calm     74 % 0 in 0.0 W/m2 CLR
19:44 33.4 °F 26.1 °F 30.5 in Calm     74 % 0 in 0.0 W/m2 CLR
19:49 33.1 °F 26.1 °F 30.5 in Calm     75 % 0 in 0.0 W/m2 CLR
19:54 32.9 °F 25.9 °F 30.5 in Calm     75 % 0 in 0.0 W/m2 CLR
19:59 32.5 °F 25.9 °F 30.5 in Calm     76 % 0 in 0.0 W/m2 CLR
20:04 32.4 °F 25.9 °F 30.5 in Calm     77 % 0 in 0.0 W/m2 CLR
20:09 32.2 °F 25.7 °F 30.5 in Calm     77 % 0 in 0.0 W/m2 CLR
20:14 31.8 °F 25.5 °F 30.5 in Calm     77 % 0 in 0.0 W/m2 CLR
20:19 31.6 °F 25.5 °F 30.5 in Calm     78 % 0 in 0.0 W/m2 CLR
20:24 31.5 °F 25.3 °F 30.5 in Calm     78 % 0 in 0.0 W/m2 CLR
20:29 31.3 °F 25.5 °F 30.5 in Calm     79 % 0 in 0.0 W/m2 CLR
20:34 31.1 °F 25.3 °F 30.5 in Calm     79 % 0 in 0.0 W/m2 CLR
20:39 30.9 °F 25.5 °F 30.5 in Calm     80 % 0 in 0.0 W/m2 CLR
20:44 30.7 °F 25.3 °F 30.5 in Calm     80 % 0 in 0.0 W/m2 CLR
20:49 30.7 °F 25.3 °F 30.5 in Calm     80 % 0 in 0.0 W/m2 CLR
20:54 30.7 °F 25.3 °F 30.5 in Calm     80 % 0 in 0.0 W/m2 CLR
20:59 30.6 °F 25.2 °F 30.5 in Calm     80 % 0 in 0.0 W/m2 CLR
21:04 30.4 °F 25 °F 30.5 in Calm     80 % 0 in 0.0 W/m2 CLR
21:09 30.4 °F 25.3 °F 30.5 in Calm     81 % 0 in 0.0 W/m2 CLR
21:14 30.4 °F 25 °F 30.5 in Calm     80 % 0 in 0.0 W/m2 CLR
21:19 30.4 °F 25 °F 30.5 in Calm     80 % 0 in 0.0 W/m2 CLR
21:24 30.2 °F 25.2 °F 30.5 in Calm     81 % 0 in 0.0 W/m2 CLR
21:29 30 °F 25.2 °F 30.5 in Calm     82 % 0 in 0.0 W/m2 CLR
21:34 29.8 °F 24.8 °F 30.5 in Calm     81 % 0 in 0.0 W/m2 CLR
21:39 29.8 °F 25 °F 30.5 in Calm     82 % 0 in 0.0 W/m2 CLR
21:44 29.8 °F 25 °F 30.5 in Calm     82 % 0 in 0.0 W/m2 CLR
21:49 29.7 °F 25 °F 30.5 in Calm     82 % 0 in 0.0 W/m2 CLR
21:54 29.7 °F 24.8 °F 30.5 in Calm     82 % 0 in 0.0 W/m2 CLR
21:59 29.7 °F 24.8 °F 30.5 in Calm     82 % 0 in 0.0 W/m2 CLR
22:04 29.7 °F 24.8 °F 30.5 in Calm     82 % 0 in 0.0 W/m2 CLR
22:09 29.5 °F 24.6 °F 30.5 in Calm     82 % 0 in 0.0 W/m2 CLR
22:14 29.3 °F 24.4 °F 30.5 in Calm     82 % 0 in 0.0 W/m2 CLR
22:19 29.1 °F 24.6 °F 30.5 in Calm     83 % 0 in 0.0 W/m2 CLR
22:24 28.9 °F 24.4 °F 30.5 in Calm     83 % 0 in 0.0 W/m2 CLR
22:29 28.8 °F 24.6 °F 30.5 in Calm     84 % 0 in 0.0 W/m2 CLR
22:34 28.8 °F 24.6 °F 30.5 in Calm     84 % 0 in 0.0 W/m2 CLR
22:39 28.8 °F 24.4 °F 30.5 in Calm     84 % 0 in 0.0 W/m2 CLR
22:44 28.6 °F 24.4 °F 30.5 in Calm     84 % 0 in 0.0 W/m2 CLR
22:49 28.6 °F 24.3 °F 30.5 in Calm     84 % 0 in 0.0 W/m2 CLR
22:54 28.4 °F 24.3 °F 30.5 in Calm     84 % 0 in 0.0 W/m2 CLR
22:59 28.2 °F 24.4 °F 30.5 in Calm     85 % 0 in 0.0 W/m2 CLR
23:04 28.2 °F 24.3 °F 30.5 in Calm     85 % 0 in 0.0 W/m2 CLR
23:09 28.2 °F 24.3 °F 30.5 in Calm     85 % 0 in 0.0 W/m2 CLR
23:14 28 °F 24.3 °F 30.5 in Calm     85 % 0 in 0.0 W/m2 CLR
23:19 28 °F 24.3 °F 30.5 in Calm     85 % 0 in 0.0 W/m2 CLR
23:24 28 °F 24.1 °F 30.5 in Calm     85 % 0 in 0.0 W/m2 CLR
23:29 27.9 °F 24.1 °F 30.5 in Calm     85 % 0 in 0.0 W/m2 CLR
23:34 27.9 °F 24.1 °F 30.5 in Calm     85 % 0 in 0.0 W/m2 CLR
23:39 27.9 °F 23.9 °F 30.5 in Calm     85 % 0 in 0.0 W/m2 CLR
23:44 27.7 °F 23.7 °F 30.5 in Calm     85 % 0 in 0.0 W/m2 CLR
23:49 27.7 °F 24.1 °F 30.5 in Calm     86 % 0 in 0.0 W/m2 CLR
23:54 27.7 °F 24.1 °F 30.5 in Calm     86 % 0 in 0.0 W/m2 CLR
23:59 27.7 °F 24.1 °F 30.5 in Calm     86 % 0 in 0.0 W/m2 CLR
Lo Temps de Massalio
Compliments of Weather Underground - 1.25 mb